EW4079 Weather Reports


time (UTC)temp
F
wind
direction
speed
knots
gust
knots
rain 1hr
in
rain 24hr
in
rain mn
in
humidity
%
barometer
mb
20260502163008 60 82 0.0 0.0 0.00 0.00 0.00 38 1012.0
20260502161609 58 138 0.0 0.0 0.00 0.00 0.00 43 1012.2
20260502151604 49 360 0.0 0.0 0.00 0.00 0.00 56 1012.7
20260502123014 30 150 0.9 0.0 0.00 0.00 0.00 80 1012.7
20260502121516 29 155 0.0 0.0 0.00 0.00 0.00 82 1012.5
20260502114505 29 173 0.0 0.0 0.00 0.00 0.00 81 1012.4
20260502113006 30 173 0.0 0.0 0.00 0.00 0.00 82 1012.3
20260502111506 30 173 0.0 0.0 0.00 0.00 0.00 80 1012.4
20260502110008 31 173 0.0 0.0 0.00 0.00 0.00 79 1012.3
20260502104506 31 173 0.0 0.0 0.00 0.00 0.00 79 1012.2
20260502103005 31 173 0.0 0.0 0.00 0.00 0.00 78 1012.2
20260502101504 31 173 0.0 0.0 0.00 0.00 0.00 78 1012.2
20260502091504 34 173 0.0 0.0 0.00 0.00 0.00 74 1011.9
20260502070113 40 360 1.7 0.0 0.00 0.00 0.00 64 1012.1
20260502064625 41 360 4.3 0.0 0.00 0.00 0.00 61 1011.9
20260502063102 41 360 4.3 0.0 0.00 0.00 0.00 62 1012.1
20260502061600 42 360 2.6 0.0 0.00 0.00 0.00 60 1012.1
20260502060059 42 360 2.6 0.0 0.00 0.00 0.00 60 1012.0
20260502054608 43 360 3.5 0.0 0.00 0.00 0.00 59 1012.0
20260502053059 43 360 3.5 0.0 0.00 0.00 0.00 59 1011.8
20260502051600 45 360 5.2 0.0 0.00 0.00 0.00 55 1011.8
20260502050059 46 360 4.3 0.0 0.00 0.00 0.00 52 1011.7
20260502044600 47 360 5.2 0.0 0.00 0.00 0.00 50 1011.8
20260502043058 48 360 5.2 0.0 0.00 0.00 0.00 48 1011.7
20260502041605 48 360 5.2 0.0 0.00 0.00 0.00 49 1011.7
20260502040058 49 360 5.2 0.0 0.00 0.00 0.00 49 1011.7
20260502034558 51 360 4.3 0.0 0.00 0.00 0.00 45 1011.5
20260502033113 52 360 4.3 0.0 0.00 0.00 0.00 45 1011.4
20260502031602 53 360 3.5 0.0 0.00 0.00 0.00 42 1011.2
20260502030059 57 360 3.5 0.0 0.00 0.00 0.00 37 1011.0
20260502024609 56 360 2.6 0.0 0.00 0.00 0.00 35 1010.8
20260502023130 57 360 1.7 0.0 0.00 0.00 0.00 36 1010.7
20260502021557 62 360 0.0 0.0 0.00 0.00 0.00 30 1010.7
20260502020059 65 360 0.0 0.0 0.00 0.00 0.00 29 1010.6
20260502014557 68 84 0.0 0.0 0.00 0.00 0.00 26 1010.6
20260502013058 70 70 0.0 0.0 0.00 0.00 0.00 19 1010.6
20260502011556 70 63 1.7 0.0 0.00 0.00 0.00 18 1010.6
20260502010054 72 62 0.0 0.0 0.00 0.00 0.00 18 1010.7
20260502004552 72 61 0.0 0.0 0.00 0.00 0.00 19 1010.7
20260502003054 71 61 0.0 0.0 0.00 0.00 0.00 17 1010.9
20260502001610 71 61 0.9 0.0 0.00 0.00 0.00 19 1011.0
20260501234548 71 49 0.0 0.0 0.00 0.00 0.00 20 1011.3
20260501233047 71 36 0.0 0.0 0.00 0.00 0.00 18 1011.3
20260501231545 71 296 0.0 0.0 0.00 0.00 0.00 18 1011.4
20260501230044 72 309 0.0 0.0 0.00 0.00 0.00 17 1011.5
20260501224602 71 360 0.0 0.0 0.00 0.00 0.00 19 1011.8
20260501223042 70 349 4.3 0.0 0.00 0.00 0.00 17 1011.8
20260501221544 70 331 0.0 0.0 0.00 0.00 0.00 20 1011.9
20260501220042 70 42 0.0 0.0 0.00 0.00 0.00 18 1012.1
20260501214537 70 335 0.9 0.0 0.00 0.00 0.00 19 1012.4
20260501213042 71 58 0.0 0.0 0.00 0.00 0.00 19 1012.6
20260501211533 70 53 0.0 0.0 0.00 0.00 0.00 19 1012.8
20260501210031 68 26 0.0 0.0 0.00 0.00 0.00 21 1013.0
20260501204531 68 5 1.7 0.0 0.00 0.00 0.00 20 1013.2
20260501203030 69 268 0.0 0.0 0.00 0.00 0.00 19 1013.3
20260501201528 68 268 0.9 0.0 0.00 0.00 0.00 22 1013.5
20260501200037 67 360 7.0 0.0 0.00 0.00 0.00 18 1013.4
20260501194526 67 66 1.7 0.0 0.00 0.00 0.00 22 1013.5
20260501193028 67 42 0.0 0.0 0.00 0.00 0.00 25 1013.7
20260501191522 68 223 0.9 0.0 0.00 0.00 0.00 22 1013.9
20260501190032 66 360 0.0 0.0 0.00 0.00 0.00 24 1013.9
20260501184519 67 245 1.7 0.0 0.00 0.00 0.00 24 1014.1
20260501183023 67 273 0.9 0.0 0.00 0.00 0.00 24 1014.4
20260501181514 66 115 3.5 0.0 0.00 0.00 0.00 25 1014.5
20260501180012 64 311 2.6 0.0 0.00 0.00 0.00 25 1014.7